Flag Weather past 2 weeks in Rouyn-Noranda, Quebec, Canada

Now
41 °F

Light rain. Fog.


Feels Like: 35 °F
Forecast: 28 / 41 °F
Wind: 9 mph from Southeast

Location: Rouyn Airport

Current Time: Nov 24, 2014 at 4:35:30 AM

Latest Report: Nov 24, 2014 at 4:00 AM


Visibility: 4 mi

Pressure: 29.41 "Hg

Humidity: 93%

Dew point: 39 °F

Location of Rouyn-NorandaLocation

Historic Weather in Rouyn-Noranda — Graph

°F

Rouyn-Noranda temperature yesterday

Maximum temperature yesterday: 41 °F (at 11:00 PM)
Minimum temperature yesterday: 32 °F (at 5:00 AM)
Average temperature yesterday: 36 °F

Past Weeks' High & Low Weather Summary

 TemperatureHumidityPressure
High41 °F (Nov 23, 11:00 PM)100% (Nov 9, 7:00 PM)30.27 "Hg (Nov 9, 7:00 PM)
Low-8 °F (Nov 21, 8:00 AM)63% (Nov 10, 12:00 PM)29.25 "Hg (Nov 18, 5:51 AM)
Average20 °F87%29.83 "Hg
* Reported Nov 9 3:00 AM — Nov 24 3:00 AM, Rouyn-Noranda, Weather by CustomWeather, © 2014

Note: Actual official high and low records may vary slightly from our data, if they occured in-between our weather recording intervals... More about our weather records

Advertising

Rouyn-Noranda weather history for previous 24 hours

 ConditionsComfort  
Time TempWeatherWind HumidityBarometerVisibility
3:00 AM
Nov 24
41 °FLight rain. Fog.12 mph93%29.46 "Hg4 mi
2:00 AM41 °FLight rain. Fog.10 mph93%29.53 "Hg3 mi
1:00 AM41 °FLight rain. Fog.10 mph100%29.59 "Hg5 mi
12:50 AM41 °FLight rain. Fog.12 mph100%29.59 "Hg3 mi
12:00 AM41 °FLight rain. Fog.9 mph100%29.62 "Hg2 mi
11:00 PM
Nov 23
41 °FLight rain. Fog.9 mph93%29.64 "Hg2 mi
10:00 PM39 °FFog.7 mph100%29.66 "Hg2 mi
9:00 PM39 °FFog.9 mph100%29.68 "Hg2 mi
8:00 PM39 °FDrizzle. Fog.12 mph100%29.70 "Hg2 mi
7:00 PM39 °FDrizzle. Fog.9 mph100%29.71 "Hg1 mi
6:00 PM39 °FDrizzle. Fog.9 mph93%29.72 "Hg2 mi
5:46 PM39 °FDrizzle. Fog.13 mph93%29.73 "Hg2 mi
5:00 PM37 °FFog.8 mph100%29.75 "Hg3 mi
4:00 PM37 °FFog.9 mph93%29.75 "Hg3 mi
3:00 PM37 °FFog.6 mph93%29.80 "Hg4 mi
2:00 PM36 °FFog.9 mph100%29.83 "Hg3 mi
1:00 PM36 °FFog.7 mph93%29.85 "Hg3 mi
12:48 PM36 °FFog.7 mph93%29.85 "Hg3 mi
12:00 PM36 °FDrizzle. Fog.6 mph93%29.86 "Hg2 mi
11:00 AM36 °FFog.10 mph93%29.87 "Hg2 mi
10:00 AM34 °FFog.7 mph100%29.88 "Hg2 mi
9:00 AM34 °FFog.8 mph93%29.88 "Hg2 mi
8:00 AM34 °FLight snow. Fog.7 mph93%29.88 "Hg2 mi
7:00 AM32 °FLight snow. Ice fog.6 mph100%29.88 "Hg2 mi
6:46 AM32 °FLight snow. Ice fog.5 mph100%29.87 "Hg2 mi
6:00 AM32 °FIce fog.2 mph100%29.87 "Hg3 mi
5:00 AM32 °FIce fog.6 mph100%29.86 "Hg4 mi
4:00 AM34 °FFog.7 mph93%29.86 "Hg5 mi
Weather by CustomWeather, © 2014

See weather overviewHow to use our weather pages